Find Starlink 30225

NORAD ID: 57449 Int'l Des: 2023-105 Owner: SPXS Country: US Constellation: starlink operational
LEOCIRCULAR

当前视图

正在加载3D地球...

About Starlink 30225

Starlink 30225 (NORAD 57449) is a starlink constellation satellite (v2 mini) launched Jul 24, 2023 by SPXS of US. It operates in LEO, CIRCULAR orbit with a mass of 730.00 kg.

即将过境

Passes for default location (London). Set your location on the main map for personalized predictions.

高度历史

Loading altitude history...

两行轨道根数

1 57449U 23105V 26264.91679709 .00000926 00000-0 43168-4 0 9991
2 57449 43.0028 234.9476 0001483 240.0988 119.9717 15.27579424175611
Epoch: Sep 21, 2026 • Age: 6 hours

当前状态

高度 487.7 km
远地点 / 近地点 N/A
速度 7.62 km/s
星下点 -20.72°S, 146.5°E
发射日期 Jul 24, 2023
运行时间 3.1 years
类型 internet

技术详情

分类 Payload
质量 730.00 kg
干质量 700.00 kg
长度 0.30 m
跨度 29.00 m
形状 ? Box + pan
制造商 SPXS
平台类型 Starlink V2M
阶段状态 In Orbit
所有者/国家 SPXS/US

Most Searched